This demonstration page uses our WeatherBlox Daily Observations layout. Learn more.

Left ArrowRight Arrow

39.51506, -84.39828

Hourly Observations for February 14, 2016

Temp ( °F °C ) Dew Point ( °F °C ) Humidity (%) Winds ( mph kmh ) Pressure ( in mb ) Visibility ( mi km ) Precip ( " mm )
12:15 am 00:15 Clear 7 -14 1 -17.2 77 77 NNE 5 7 30.62 1037 10 16 0.00 0.00
12:35 am 00:35 Clear 9 -12.6 3 -15.9 77 77 NNE 5 7 30.59 1036 10 16 0.00 0.00
12:55 am 00:55 Clear 9 -12.6 3 -16 76 76 NNE 3 6 30.59 1036 10 16 0.00 0.00
1:15 am 01:15 Clear 9 -12.6 4 -15.8 77 77 Calm 30.59 1036 10 16 0.00 0.00
1:35 am 01:35 Clear 9 -12.6 3 -15.9 77 77 Calm 30.62 1037 10 16 0.00 0.00
1:55 am 01:55 Clear 9 -12.6 4 -15.7 78 78 Calm 30.62 1037 10 16 0.00 0.00
2:15 am 02:15 Clear 9 -12.6 3 -16 76 76 NNE 5 7 30.59 1036 10 16 0.00 0.00
2:35 am 02:35 Clear 9 -12.6 4 -15.8 77 77 NNE 3 6 30.59 1036 10 16 0.00 0.00
2:55 am 02:55 Clear 9 -12.6 3 -16 76 76 NNE 3 6 30.59 1036 10 16 0.00 0.00
3:15 am 03:15 Clear 9 -12.6 3 -16 76 76 NE 3 6 30.59 1036 10 16 0.00 0.00
3:35 am 03:35 Clear 10 -12.1 4 -15.6 75 75 Calm 30.56 1035 10 16 0.00 0.00
3:55 am 03:55 Clear 10 -12 3 -15.9 73 73 ENE 3 6 30.53 1034 10 16 0.00 0.00
4:15 am 04:15 Clear 12 -11.3 4 -15.6 71 71 ENE 3 6 30.53 1034 10 16 0.00 0.00
4:35 am 04:35 Clear 12 -11.2 4 -15.3 72 72 Calm 30.53 1034 10 16 0.00 0.00
4:55 am 04:55 Clear 12 -11.2 5 -15 74 74 Calm 30.56 1035 10 16 0.00 0.00
5:15 am 05:15 Clear 12 -11.2 5 -15.2 73 73 Calm 30.56 1035 10 16 0.00 0.00
5:35 am 05:35 Clear 12 -11.2 5 -15.1 73 73 Calm 30.56 1035 10 16 0.00 0.00
5:55 am 05:55 Clear 14 -10.2 5 -14.9 69 69 Calm 30.56 1035 10 16 0.00 0.00
6:15 am 06:15 Partly Cloudy 14 -9.8 3 -16.1 60 60 Calm 30.56 1035 10 16 0.00 0.00
6:35 am 06:35 Mostly Cloudy 14 -9.8 3 -16 61 61 Calm 30.56 1035 10 16 0.00 0.00
6:55 am 06:55 Mostly Cloudy 14 -9.8 4 -15.6 63 63 ENE 5 7 30.56 1035 10 16 0.00 0.00
7:15 am 07:15 Cloudy 14 -9.8 4 -15.3 65 65 ENE 5 7 30.53 1034 10 16 0.00 0.00
7:35 am 07:35 Cloudy 14 -9.8 4 -15.4 64 64 ENE 3 6 30.53 1034 10 16 0.00 0.00
7:55 am 07:55 Cloudy 14 -9.8 4 -15.3 65 65 E 3 6 30.53 1034 10 16 0.00 0.00
8:15 am 08:15 Cloudy 14 -9.8 2 -16.6 58 58 SE 6 9 30.53 1034 10 16 0.00 0.00
8:35 am 08:35 Cloudy 14 -9.8 2 -16.8 57 57 SSE 3 6 30.53 1034 10 16 0.00 0.00
8:55 am 08:55 Mostly Cloudy 15 -9.5 2 -16.9 55 55 SSE 7 11 30.53 1034 10 16 0.00 0.00
9:15 am 09:15 Mostly Cloudy 16 -9.1 2 -16.7 54 54 SE 9 15 30.53 1034 10 16 0.00 0.00
9:35 am 09:35 Mostly Cloudy 17 -8.5 2 -16.6 52 52 SE 12 19 30.50 1033 10 16 0.00 0.00
9:55 am 09:55 Partly Cloudy 17 -8.5 2 -16.9 51 51 SE 9 15 30.50 1033 10 16 0.00 0.00
10:15 am 10:15 Mostly Cloudy 17 -8.2 2 -16.9 50 50 SSE 9 15 30.50 1033 10 16 0.00 0.00
10:35 am 10:35 Mostly Cloudy 19 -7 3 -16.3 48 48 SE 9 15 30.48 1032 10 16 0.00 0.00
10:55 am 10:55 Cloudy 19 -7 2 -16.6 47 47 SSE 9 15 30.48 1032 10 16 0.00 0.00
11:15 am 11:15 Cloudy 21 -6.3 2 -16.9 43 43 SSE 13 20 30.45 1031 10 16 0.00 0.00
11:35 am 11:35 Cloudy 21 -6.1 1 -17.3 41 41 SE 13 20 30.45 1031 10 16 0.00 0.00
11:55 am 11:55 Cloudy 21 -6.3 2 -16.9 43 43 SSE 14 22 30.45 1031 10 16 0.00 0.00
12:15 pm 12:15 Cloudy 20 -6.4 1 -17.1 43 43 SSE 13 20 30.45 1031 10 16 0.00 0.00
12:35 pm 12:35 Cloudy 21 -6.3 2 -16.8 44 44 SE 8 13 30.45 1031 10 16 0.00 0.00
12:55 pm 12:55 Cloudy 21 -6.3 2 -16.9 43 43 SE 9 15 30.42 1030 10 16 0.00 0.00
1:15 pm 13:15 Cloudy 22 -5.6 2 -16.6 42 42 SE 10 17 30.39 1029 10 16 0.00 0.00
1:35 pm 13:35 Cloudy 22 -5.6 2 -16.5 42 42 ESE 13 20 30.36 1028 10 16 0.00 0.00
1:55 pm 13:55 Cloudy 22 -5.3 3 -16 43 43 ESE 13 20 30.33 1027 10 16 0.00 0.00
2:15 pm 14:15 Cloudy 22 -5.6 4 -15.8 45 45 ESE 10 17 30.33 1027 10 16 0.00 0.00
2:35 pm 14:35 Cloudy 22 -5.6 5 -15.2 47 47 SE 8 13 30.33 1027 10 16 0.00 0.00
2:55 pm 14:55 Cloudy with Light Snow 21 -6.3 9 -12.8 60 60 SSE 7 11 30.36 1028 2 2 0.00 0.00
3:15 pm 15:15 Cloudy with Light Snow 20 -6.4 12 -11.3 69 69 ESE 8 13 30.36 1028 1 2 0.00 0.00
3:35 pm 15:35 Cloudy with Light Snow 19 -7 13 -10.8 75 75 ESE 10 17 30.30 1026 1 1 0.00 0.00
3:55 pm 15:55 Cloudy with Snow 19 -7 13 -10.4 77 77 E 7 11 30.30 1026 1 1 0.00 0.00
4:15 pm 16:15 Cloudy with Light Snow 19 -7 14 -10 79 79 E 7 11 30.30 1026 1 1 0.00 0.00
4:35 pm 16:35 Cloudy with Light Snow 19 -7 14 -10.1 79 79 E 5 7 30.30 1026 1 2 0.00 0.00
4:55 pm 16:55 Cloudy with Light Snow 19 -7 14 -9.8 81 81 E 6 9 30.30 1026 1 1 0.00 0.00
5:15 pm 17:15 Cloudy with Snow 19 -7 15 -9.6 82 82 E 8 13 30.27 1025 1 1 0.00 0.00
5:35 pm 17:35 Cloudy with Light Snow 19 -7 15 -9.6 82 82 E 7 11 30.27 1025 1 1 0.00 0.00
5:55 pm 17:55 Cloudy with Light Snow 19 -7 15 -9.7 81 81 ENE 7 11 30.27 1025 1 1 0.00 0.00
6:15 pm 18:15 Cloudy with Snow 19 -7 15 -9.5 83 83 E 7 11 30.27 1025 1 1 0.00 0.00
6:35 pm 18:35 Cloudy with Light Snow 19 -7 15 -9.5 83 83 E 5 7 30.27 1025 1 2 0.00 0.00
6:55 pm 18:55 Cloudy with Light Snow 19 -7 15 -9.5 83 83 E 5 7 30.27 1025 2 3 0.00 0.00
7:15 pm 19:15 Cloudy with Light Snow 20 -6.5 15 -9.5 80 80 E 3 6 30.27 1025 3 4 0.00 0.00
7:35 pm 19:35 Cloudy 20 -6.6 15 -9.6 79 79 E 8 13 30.27 1025 10 16 0.00 0.00
7:55 pm 19:55 Cloudy 21 -6.3 14 -9.8 77 77 E 7 11 30.24 1024 10 16 0.00 0.00
8:20 pm 20:20 Cloudy 21 -6.3 14 -10 75 75 ESE 7 11 30.24 1024 10 16 0.00 0.00
8:35 pm 20:35 Cloudy 21 -6.3 14 -10.1 75 75 ESE 8 13 30.24 1024 10 16 0.00 0.00
8:55 pm 20:55 Cloudy 21 -6.3 14 -10.1 75 75 ESE 7 11 30.24 1024 10 16 0.00 0.00
9:15 pm 21:15 Cloudy 21 -6.3 14 -10.1 75 75 ESE 6 9 30.21 1023 10 16 0.00 0.00
9:35 pm 21:35 Cloudy 21 -6.3 14 -10.2 74 74 SE 6 9 30.21 1023 10 16 0.00 0.00
9:55 pm 21:55 Cloudy 21 -6.1 14 -10.2 73 73 SE 5 7 30.21 1023 10 16 0.00 0.00
10:15 pm 22:15 Cloudy 22 -5.7 15 -9.7 74 74 ESE 3 6 30.21 1023 10 16 0.00 0.00
10:35 pm 22:35 Cloudy 22 -5.6 15 -9.6 74 74 SE 7 11 30.21 1023 10 16 0.00 0.00
10:55 pm 22:55 Cloudy 22 -5.6 15 -9.6 74 74 ESE 5 7 30.21 1023 10 16 0.00 0.00
11:15 pm 23:15 Cloudy 22 -5.6 15 -9.5 74 74 SE 3 6 30.21 1023 10 16 0.00 0.00
11:35 pm 23:35 Cloudy 22 -5.6 15 -9.5 74 74 ESE 5 7 30.15 1021 10 16 0.00 0.00
11:55 pm 23:55 Cloudy 22 -5.6 15 -9.5 74 74 SE 5 7 30.15 1021 10 16 0.00 0.00

Powered by AerisWeather